Weather History for Rugby, ND

Change the Weather History Date:

Thursday, February 21, 2013

  Actual Average Record
Temperature  
Mean Temperature 10 °F -  
Max Temperature 14 °F 29 °F 51 °F (1988)
Min Temperature 5 °F 8 °F -24 °F (1963)
Degree Days  
Heating Degree Days 56    
Moisture  
Dew Point 5 °F    
Average Humidity 81    
Maximum Humidity 92    
Minimum Humidity 73    
Precipitation  
Precipitation 0.02 in - - ()
Sea Level Pressure  
Sea Level Pressure 30.17 in    
Wind  
Wind Speed 14 mph (SE)    
Max Wind Speed 20 mph    
Max Gust Speed 26 mph    
Visibility 8 miles    
Events Snow    
Averages and records for this station are not official NWS values.
T = Trace of Precipitation, MM = Missing Value Source: NWS Daily Summary

Daily Weather History Graph

Daily Weather History Graph

Search for Another Location

Airport:

Trip Planner

Search our weather history database for the weather conditions in past years. The results will help you decide how hot, cold, wet, or windy it might be!

Date:

Astronomy

Feb. 21, 2013 Rise Set
Actual Time 7:36 AM CST 6:12 PM CST
Civil Twilight 7:04 AM CST 6:43 PM CST
Nautical Twilight 6:27 AM CST 7:20 PM CST
Astronomical Twilight 5:51 AM CST 7:56 PM CST
Moon 2:16 PM CST 4:54 AM CST
Length of Visible Light 11h 39m
Length of Day
10h 35m
Waxing Gibbous, 84% of the Moon is Illuminated
Feb 21
Waxing Gibbous
Feb 25
Full
Mar 4
Last Quarter
Mar 11
New
Mar 19
First Quarter

Hourly Weather History & Observations

Time (CST) Temp. Windchill Dew Point Humidity Pressure Visibility Wind Dir Wind Speed Gust Speed Precip Events Conditions
12:15 AM 5.0 °F -12.3 °F -0.4 °F 78% 30.19 in 4.0 mi SE 13.8 mph 23.0 mph N/A Snow Light Snow
12:35 AM 5.0 °F -14.7 °F -0.4 °F 78% 30.19 in 6.0 mi SE 18.4 mph - N/A   Haze
12:55 AM 5.0 °F -13.6 °F 1.4 °F 85% 30.19 in 6.0 mi SE 16.1 mph 20.7 mph N/A   Overcast
1:15 AM 6.8 °F -11.8 °F 1.4 °F 79% 30.19 in 3.0 mi SE 17.3 mph 20.7 mph N/A Snow Light Snow
1:35 AM 6.8 °F -10.0 °F 1.4 °F 79% 30.20 in 5.0 mi SE 13.8 mph 18.4 mph N/A Snow Light Snow
1:55 AM 6.8 °F -8.6 °F 1.4 °F 79% 30.19 in 5.0 mi SE 11.5 mph 18.4 mph 0.01 in Snow Light Snow
2:15 AM 6.8 °F -9.3 °F 1.4 °F 79% 30.18 in 3.0 mi SE 12.7 mph 19.6 mph N/A Snow Light Snow
2:35 AM 6.8 °F -10.0 °F 1.4 °F 79% 30.18 in 3.0 mi SE 13.8 mph - N/A Snow Light Snow
2:55 AM 6.8 °F -10.7 °F 1.4 °F 79% 30.18 in 3.0 mi SE 15.0 mph 23.0 mph 0.01 in Snow Light Snow
3:15 AM 6.8 °F -10.0 °F 1.4 °F 79% 30.18 in 5.0 mi SE 13.8 mph - N/A   Haze
3:35 AM 6.8 °F -11.8 °F 3.2 °F 85% 30.18 in 4.0 mi SE 17.3 mph - N/A   Overcast
3:55 AM 6.8 °F -12.4 °F 3.2 °F 85% 30.18 in 3.0 mi SSE 18.4 mph - N/A Snow Light Snow
4:15 AM 6.8 °F -10.0 °F 5.0 °F 92% 30.18 in 1.8 mi SSE 13.8 mph 19.6 mph N/A Snow Light Snow
4:35 AM 8.6 °F -8.3 °F 5.0 °F 85% 30.18 in 2.0 mi SE 15.0 mph 18.4 mph N/A Snow Light Snow
4:55 AM 8.6 °F -8.9 °F 5.0 °F 85% 30.18 in 1.8 mi SSE 16.1 mph - N/A Snow Light Snow
5:15 AM 8.6 °F -6.3 °F 5.0 °F 85% 30.18 in 3.0 mi SSE 11.5 mph 18.4 mph N/A   Overcast
5:55 AM 8.6 °F -8.3 °F 5.0 °F 85% 30.18 in 4.0 mi SSE 15.0 mph 21.9 mph N/A   Overcast
6:15 AM 8.6 °F -7.0 °F 5.0 °F 85% 30.18 in 3.0 mi SE 12.7 mph - N/A   Overcast
6:35 AM 8.6 °F -7.0 °F 5.0 °F 85% 30.18 in 5.0 mi SE 12.7 mph - N/A   Overcast
6:55 AM 8.6 °F -5.5 °F 5.0 °F 85% 30.17 in 3.0 mi SE 10.4 mph - N/A   Overcast
7:15 AM 8.6 °F -6.3 °F 5.0 °F 85% 30.17 in 9.0 mi SE 11.5 mph - N/A   Overcast
7:35 AM 8.6 °F -6.3 °F 5.0 °F 85% 30.18 in 10.0 mi SE 11.5 mph - N/A   Overcast
7:55 AM 8.6 °F -7.0 °F 5.0 °F 85% 30.18 in 9.0 mi SE 12.7 mph 17.3 mph N/A   Overcast
8:15 AM 8.6 °F -7.0 °F 5.0 °F 85% 30.17 in 6.0 mi SE 12.7 mph 18.4 mph N/A Snow Light Snow
8:35 AM 8.6 °F -8.3 °F 5.0 °F 85% 30.18 in 9.0 mi SE 15.0 mph - N/A   Overcast
8:55 AM 8.6 °F -10.0 °F 5.0 °F 85% 30.18 in 8.0 mi SE 18.4 mph - N/A   Overcast
9:15 AM 10.4 °F -7.2 °F 5.0 °F 79% 30.19 in 9.0 mi SE 17.3 mph 23.0 mph N/A   Overcast
9:35 AM 10.4 °F -8.2 °F 5.0 °F 79% 30.20 in 8.0 mi SE 19.6 mph - N/A   Overcast
9:55 AM 10.4 °F -8.2 °F 5.0 °F 79% 30.20 in 5.0 mi SE 19.6 mph 23.0 mph N/A   Haze
10:15 AM 10.4 °F -7.7 °F 6.8 °F 85% 30.21 in 1.0 mi SE 18.4 mph 26.5 mph N/A Snow Light Snow
10:35 AM 10.4 °F -8.2 °F 5.0 °F 79% 30.21 in 2.5 mi SSE 19.6 mph - N/A Snow Light Snow
10:55 AM 10.4 °F -6.0 °F 5.0 °F 79% 30.21 in 7.0 mi SE 15.0 mph 24.2 mph N/A   Overcast
11:15 AM 10.4 °F -6.6 °F 5.0 °F 79% 30.20 in 10.0 mi SSE 16.1 mph - N/A   Mostly Cloudy
11:35 AM 10.4 °F -7.2 °F 5.0 °F 79% 30.19 in 10.0 mi SE 17.3 mph 21.9 mph N/A   Mostly Cloudy
11:55 AM 12.2 °F -3.1 °F 5.0 °F 73% 30.18 in 10.0 mi SE 13.8 mph - N/A   Partly Cloudy
12:15 PM 12.2 °F -1.0 °F 6.8 °F 79% 30.18 in 10.0 mi SE 10.4 mph - N/A   Partly Cloudy
12:35 PM 14.0 °F -2.0 °F 6.8 °F 73% 30.18 in 10.0 mi SSE 16.1 mph - N/A   Clear
12:55 PM 14.0 °F -1.4 °F 6.8 °F 73% 30.18 in 10.0 mi SSE 15.0 mph 20.7 mph N/A   Clear
1:15 PM 14.0 °F 0.5 °F 6.8 °F 73% 30.18 in 10.0 mi SSE 11.5 mph 21.9 mph N/A   Clear
1:35 PM 14.0 °F -3.0 °F 6.8 °F 73% 30.18 in 8.0 mi SSE 18.4 mph 23.0 mph N/A   Clear
1:55 PM 14.0 °F -3.0 °F 6.8 °F 73% 30.17 in 10.0 mi SSE 18.4 mph 24.2 mph N/A   Partly Cloudy
2:15 PM 14.0 °F -1.4 °F 6.8 °F 73% 30.16 in 10.0 mi SE 15.0 mph 20.7 mph N/A   Partly Cloudy
2:35 PM 14.0 °F -2.0 °F 8.6 °F 79% 30.16 in 10.0 mi SE 16.1 mph 23.0 mph N/A   Clear
2:55 PM 14.0 °F -0.2 °F 8.6 °F 79% 30.17 in 10.0 mi SE 12.7 mph 20.7 mph N/A   Clear
3:15 PM 14.0 °F 0.5 °F 8.6 °F 79% 30.16 in 10.0 mi SE 11.5 mph - N/A   Clear
3:35 PM 14.0 °F -0.8 °F 8.6 °F 79% 30.16 in 10.0 mi SSE 13.8 mph 20.7 mph N/A   Partly Cloudy
3:55 PM 14.0 °F -0.2 °F 8.6 °F 79% 30.15 in 10.0 mi SSE 12.7 mph - N/A   Partly Cloudy
4:15 PM 14.0 °F 0.5 °F 8.6 °F 79% 30.15 in 10.0 mi SE 11.5 mph 17.3 mph N/A   Mostly Cloudy
4:35 PM 14.0 °F 0.5 °F 8.6 °F 79% 30.15 in 10.0 mi SE 11.5 mph - N/A   Partly Cloudy
4:55 PM 14.0 °F -0.2 °F 8.6 °F 79% 30.15 in 10.0 mi SE 12.7 mph - N/A   Clear
5:15 PM 14.0 °F -0.8 °F 8.6 °F 79% 30.14 in 10.0 mi SE 13.8 mph - N/A   Clear
5:35 PM 14.0 °F -0.2 °F 6.8 °F 73% 30.14 in 10.0 mi SE 12.7 mph - N/A   Clear
5:55 PM 12.2 °F -1.8 °F 6.8 °F 79% 30.15 in 10.0 mi SE 11.5 mph - N/A   Clear
6:15 PM 12.2 °F -1.8 °F 6.8 °F 79% 30.14 in 10.0 mi SE 11.5 mph - N/A   Clear
6:35 PM 10.4 °F -4.8 °F 6.8 °F 85% 30.14 in 10.0 mi SE 12.7 mph - N/A   Clear
6:55 PM 12.2 °F -4.3 °F 6.8 °F 79% 30.14 in 10.0 mi SE 16.1 mph - N/A   Clear
7:15 PM 14.0 °F 0.5 °F 6.8 °F 73% 30.14 in 10.0 mi SE 11.5 mph 17.3 mph N/A   Clear
7:35 PM 12.2 °F -1.8 °F 6.8 °F 79% 30.15 in 10.0 mi SE 11.5 mph - N/A   Clear
7:55 PM 12.2 °F -3.7 °F 6.8 °F 79% 30.14 in 10.0 mi SE 15.0 mph - N/A   Clear
8:15 PM 10.4 °F -6.0 °F 6.8 °F 85% 30.14 in 10.0 mi SE 15.0 mph 19.6 mph N/A   Clear
8:35 PM 10.4 °F -5.4 °F 6.8 °F 85% 30.15 in 10.0 mi SE 13.8 mph - N/A   Clear
8:55 PM 10.4 °F -5.4 °F 5.0 °F 79% 30.14 in 10.0 mi SE 13.8 mph 19.6 mph N/A   Mostly Cloudy
9:15 PM 10.4 °F -5.4 °F 5.0 °F 79% 30.14 in 10.0 mi SE 13.8 mph 19.6 mph N/A   Overcast
9:35 PM 8.6 °F -7.7 °F 5.0 °F 85% 30.14 in 10.0 mi SE 13.8 mph - N/A   Mostly Cloudy
9:55 PM 8.6 °F -7.0 °F 5.0 °F 85% 30.14 in 10.0 mi SE 12.7 mph - N/A   Clear
10:15 PM 8.6 °F -7.0 °F 3.2 °F 79% 30.13 in 10.0 mi SE 12.7 mph - N/A   Scattered Clouds
10:35 PM 6.8 °F -9.3 °F 3.2 °F 85% 30.13 in 10.0 mi SE 12.7 mph - N/A   Overcast
10:55 PM 6.8 °F -9.3 °F 3.2 °F 85% 30.12 in 10.0 mi SE 12.7 mph - N/A   Overcast
11:15 PM 6.8 °F -7.8 °F 1.4 °F 79% 30.11 in 10.0 mi SE 10.4 mph - N/A   Mostly Cloudy
11:35 PM 5.0 °F -9.1 °F 1.4 °F 85% 30.11 in 10.0 mi SE 9.2 mph - N/A   Mostly Cloudy
11:55 PM 5.0 °F -6.9 °F 1.4 °F 85% 30.10 in 10.0 mi SE 6.9 mph - N/A   Overcast